Regional Weather Roundup
Issued by NWS Newport/Morehead, NC

Home | Current Version | Previous Version | Text Only | Print | Product List | Glossary On
Versions: 1 2 3 4 5 6 7 8 9 10 11 12 13 14 15 16 17 18 19 20 21 22 23 24 25 26 27 28 29 30 31 32 33 34 35 36 37 38 39 40 41 42 43 44 45 46 47 48 49 50
000
ASUS42 KMHX 040625
RWRMHX
WEATHER ROUNDUP FOR EASTERN NORTH CAROLINA
NATIONAL WEATHER SERVICE NEWPORT/MOREHEAD CITY NC
200 AM EDT WED MAY 04 2016

NOTE: "FAIR" INDICATES FEW OR NO CLOUDS BELOW 12,000 FEET
WITH NO SIGNIFICANT WEATHER AND/OR OBSTRUCTIONS TO VISIBILITY

NCZ015>017-031-032-045>047-102-103-040700-
NORTH COAST

CITY           SKY/WX    TMP DP  RH WIND       PRES   REMARKS
EDENTON        CLOUDY    65  65 100 CALM      29.70F
ELIZABETH CITY LGT RAIN  65  61  87 S8        29.71S
KITTY HAWK     LGT RAIN  64  61  89 CALM      29.66F
MANTEO         NOT AVBL

$$

NCZ045>047-081-094-103-104-040700-
CENTRAL COAST

CITY           SKY/WX    TMP DP  RH WIND       PRES   REMARKS
FRISCO         PTCLDY    69  68  96 W7        29.72F
SWANQUARTER    NOT AVBL

$$

NCZ095-097-098-100-101-040700-
SOUTHERN COAST

CITY           SKY/WX    TMP DP  RH WIND       PRES   REMARKS
BEAUFORT       CLOUDY    71  69  93 S6        29.71F
CEDAR ISLAND   NOT AVBL
JACKSONVILLE   CLOUDY    69  67  93 CALM      29.69F
PINEY ISLAND   NOT AVBL
WILMINGTON     CLOUDY    72  68  87 SW14G22   29.71F


$$

NCZ011>013-027>030-043-044-078>080-089-090>093-098-040700-
COASTAL PLAIN

CITY           SKY/WX    TMP DP  RH WIND       PRES   REMARKS
AHOSKIE        CLOUDY    61  60  96 CALM      29.70S
CLINTON        CLOUDY    66  66  99 CALM      29.71F
ELIZABETHTOWN  CLOUDY    70  69  96 SW5       29.72R
GOLDSBORO      MOCLDY    65  65 100 S3        29.69F
GREENVILLE     CLEAR     63  63 100 CALM      29.72F
HAVELOCK       CLOUDY    68  66  93 N10G20    29.71F
KENANSVILLE    CLOUDY    64  64  97 CALM      29.71F
KINSTON        CLOUDY    64  63  97 CALM      29.71F
NEW BERN       RAIN      65  60  84 CALM      29.73F
RICHLANDS      CLOUDY    69  68  96 N3        29.71F
ROCKY MOUNT    CLOUDY    63  63 100 NW6       29.71F
WASHINGTON     CLOUDY    64  62  92 CALM      29.69F
WHITEVILLE     NOT AVBL

$$

AMZ130-135-150-152-154-156-158-170-250-252-270-ANZ085-086-088-633-658-670-040700-
MARINE OBSERVATIONS

STATION/POSITION TIME  TEMP    WIND        PRES    WAVE   SWELL
                       AIR SEA DIR/SP/G            HT/PER HT/PER
                 (UTC) (F)     (DEG/KT/KT) (MB)    (FT/S) (FT/S)
CHESAPEAKE LIGHT 0600   62     200/  2/  3 1006.4
64 E VA BEACH    0550   57 55  140/  4/  8 1005.6    3/ 7   3/ 7
DUCK             NOT AVBL
2 E DUCK         0511      58                N/A     2/10
OREGON INLET     0600   68 71  300/  5/  8 1006.6
13E OREGON INLT  0600      62                N/A     4/ 7   3/ 7
HATTERAS CG      0600   69 69  230/  3/  6 1005.9
DIAMOND BUOY     0550   71 72  260/ 10/ 12 1006.7    4/ 8   3/ 8
CAPE LOOKOUT     0600   70     240/  1/  2 1005.9
BEAUFORT LAB     0600   70 68  180/  5/  6 1005.2
30 SE NEW RVR IN 0525      72                N/A     5/ 7
27 SE WRIGHTSVLE 0608   72 73  250/ 19/ 27   N/A
5 SE WRIGHTSVLE  0508   72 70  230/ 16/ 21 1007.3
225 S CAPE HAT   0550   73 74  190/ 17/ 19 1010.0    6/ 7
41 SE CHARLESTON 0550   72 74  190/  8/ 10 1007.6    4/ 5   3/ 5

$$




USA.gov is the U.S. government's official web portal to all federal, state and local government web resources and services.